This demonstration page uses our WeatherBlox Daily Observations layout. Learn more.

39.51506, -84.39828

Hourly Observations for January 21, 2020

Temp ( °F °C ) Dew Point ( °F °C ) Humidity (%) Winds ( mph kmh ) Pressure ( in mb ) Visibility ( mi km ) Precip ( " mm )
12:15 am 00:15 Cloudy 24 -4.2 15 -9.6 66 66 NNE 7 11 30.64 1038 10 16.0934 0 0
12:35 am 00:35 Cloudy 24 -4.3 14 -10 65 65 NNE 9 15 30.64 1038 10 16.0934 0 0
12:55 am 00:55 Cloudy 24 -4.5 14 -10.2 65 65 N 9 15 30.64 1038 10 16.0934 0 0
1:15 am 01:15 Cloudy 24 -4.6 13 -10.5 64 64 N 7 11 30.64 1038 10 16.0934 0 0
1:35 am 01:35 Cloudy 23 -4.8 13 -10.8 63 63 NNE 12 19 30.64 1038 10 16.0934 0 0
1:55 am 01:55 Cloudy 22 -5.4 12 -11.1 65 65 N 5 7 30.64 1038 10 16.0934 0 0
2:15 am 02:15 Cloudy 22 -5.7 13 -10.8 68 68 N 5 7 30.64 1038 10 16.0934 0 0
2:35 am 02:35 Cloudy 22 -5.8 13 -10.7 69 69 N 5 7 30.65 1038 10 16.0934 0 0
2:55 am 02:55 Partly Cloudy 21 -6.2 12 -10.9 70 70 NNW 3 6 30.65 1038 10 16.0934 0 0
3:15 am 03:15 Clear 20 -6.5 13 -10.8 72 72 Calm 30.65 1038 10 16.0934 0 0
3:35 am 03:35 Partly Cloudy 19 -7.5 13 -10.8 78 78 Calm 30.66 1038 10 16.0934 0 0
3:55 am 03:55 Clear 17 -8.3 13 -10.3 86 86 Calm 30.66 1038 10 16.0934 0 0
4:15 am 04:15 Clear 17 -8.3 13 -10.4 85 85 N 3 6 30.66 1038 10 16.0934 0 0
4:35 am 04:35 Clear 17 -8.3 13 -10.6 84 84 N 3 6 30.66 1038 10 16.0934 0 0
4:55 am 04:55 Clear 17 -8.3 13 -10.6 84 84 NNE 3 6 30.67 1039 10 16.0934 0 0
5:15 am 05:15 Clear 17 -8.4 13 -10.5 85 85 Calm 30.68 1039 10 16.0934 0 0
5:35 am 05:35 Mostly Cloudy 17 -8.5 13 -10.8 84 84 Calm 30.68 1039 10 16.0934 0 0
5:55 am 05:55 Partly Cloudy 17 -8.6 13 -10.8 84 84 Calm 30.68 1039 10 16.0934 0 0
6:15 am 06:15 Partly Cloudy 16 -8.7 13 -10.6 86 86 Calm 30.68 1039 10 16.0934 0 0
6:35 am 06:35 Clear 16 -8.9 13 -10.4 89 89 Calm 30.67 1039 10 16.0934 0 0
6:55 am 06:55 Clear 16 -9 14 -10.2 91 91 N 3 6 30.69 1039 10 16.0934 0 0
7:15 am 07:15 Partly Cloudy 15 -9.7 13 -10.8 92 92 Calm 30.69 1039 10 16.0934 0 0
7:35 am 07:35 Mostly Cloudy 14 -10.1 12 -11.2 92 92 Calm 30.69 1039 10 16.0934 0 0
7:55 am 07:55 Cloudy 16 -9.1 13 -10.3 91 91 Calm 30.7 1040 10 16.0934 0 0
8:15 am 08:15 Cloudy 17 -8.1 15 -9.4 90 90 Calm 30.71 1040 10 16.0934 0 0
8:35 am 08:35 Cloudy 19 -7.5 14 -9.8 84 84 Calm 30.71 1040 10 16.0934 0 0
8:55 am 08:55 Cloudy 18 -7.7 14 -9.8 85 85 Calm 30.72 1040 10 16.0934 0 0
9:15 am 09:15 Cloudy 20 -6.7 15 -9.6 80 80 NW 5 7 30.72 1040 10 16.0934 0 0
9:35 am 09:35 Cloudy 21 -6.1 13 -10.6 71 71 Calm 30.71 1040 10 16.0934 0 0
9:55 am 09:55 Partly Cloudy 22 -5.5 13 -10.5 68 68 Calm 30.71 1040 10 16.0934 0 0
10:15 am 10:15 Sunny 23 -5.1 12 -10.9 64 64 NE 3 6 30.71 1040 10 16.0934 0 0
10:35 am 10:35 Sunny 24 -4.7 13 -10.8 63 63 ENE 5 7 30.71 1040 10 16.0934 0 0
10:55 am 10:55 Sunny 25 -3.9 13 -10.5 61 61 NNE 5 7 30.71 1040 10 16.0934 0 0
11:15 am 11:15 Sunny 26 -3.4 13 -10.4 59 59 E 6 9 30.71 1040 10 16.0934 0 0
11:35 am 11:35 Partly Cloudy 26 -3.3 13 -10.4 58 58 E 3 6 30.71 1040 10 16.0934 0 0
11:55 am 11:55 Cloudy 26 -3.1 13 -10.4 57 57 Calm 30.69 1039 10 16.0934 0 0
12:15 pm 12:15 Cloudy 26 -3.3 13 -10.4 58 58 Calm 30.69 1039 10 16.0934 0 0
12:35 pm 12:35 Cloudy 27 -3 13 -10.6 56 56 ENE 6 9 30.67 1039 10 16.0934 0 0
12:55 pm 12:55 Partly Cloudy 26 -3.6 12 -11 57 57 Calm 30.67 1038 10 16.0934 0 0
1:15 pm 13:15 Cloudy 29 -1.8 14 -10.1 54 54 Calm 30.65 1038 10 16.0934 0 0
1:35 pm 13:35 Mostly Cloudy 27 -2.9 13 -10.6 56 56 NE 5 7 30.64 1038 10 16.0934 0 0
1:55 pm 13:55 Partly Cloudy 28 -2.4 13 -10.7 53 53 NE 5 7 30.62 1037 10 16.0934 0 0
2:15 pm 14:15 Sunny 29 -1.9 13 -10.5 52 52 Calm 30.61 1037 10 16.0934 0 0
2:35 pm 14:35 Sunny 29 -1.9 14 -10.2 53 53 ENE 5 7 30.61 1037 10 16.0934 0 0
2:55 pm 14:55 Sunny 29 -1.8 13 -10.3 53 53 Calm 30.6 1036 10 16.0934 0 0
3:15 pm 15:15 Sunny 29 -1.8 13 -10.4 52 52 Calm 30.6 1036 10 16.0934 0 0
3:35 pm 15:35 Sunny 29 -1.6 14 -10.2 52 52 Calm 30.6 1036 10 16.0934 0 0
3:55 pm 15:55 Sunny 30 -1.2 14 -9.8 52 52 E 3 6 30.6 1036 10 16.0934 0 0
4:15 pm 16:15 Sunny 29 -1.4 14 -10 52 52 Calm 30.59 1036 10 16.0934 0 0
4:35 pm 16:35 Sunny 29 -1.5 14 -10.1 52 52 E 3 6 30.59 1036 10 16.0934 0 0
4:55 pm 16:55 Sunny 29 -1.7 14 -10.1 53 53 ENE 3 6 30.59 1036 10 16.0934 0 0
5:15 pm 17:15 Sunny 28 -2 14 -10 55 55 Calm 30.59 1036 10 16.0934 0 0
5:35 pm 17:35 Sunny 27 -2.8 14 -9.9 58 58 ENE 5 7 30.6 1036 10 16.0934 0 0
5:55 pm 17:55 Clear 26 -3.1 14 -10.2 58 58 ENE 5 7 30.6 1036 10 16.0934 0 0
6:15 pm 18:15 Clear 26 -3.5 14 -9.9 62 62 ENE 3 6 30.61 1036 10 16.0934 0 0
6:35 pm 18:35 Clear 25 -4 14 -9.8 64 64 ENE 3 6 30.6 1036 10 16.0934 0 0
6:55 pm 18:55 Clear 23 -4.8 17 -8.3 77 77 Calm 30.6 1036 10 16.0934 0 0
7:15 pm 19:15 Clear 22 -5.7 17 -8.4 81 81 Calm 30.61 1037 10 16.0934 0 0
7:35 pm 19:35 Clear 20 -6.4 16 -8.7 84 84 Calm 30.61 1037 10 16.0934 0 0
7:55 pm 19:55 Clear 21 -5.9 17 -8.5 82 82 Calm 30.61 1037 10 16.0934 0 0
8:15 pm 20:15 Clear 20 -6.4 17 -8.5 85 85 Calm 30.6 1036 10 16.0934 0 0
8:35 pm 20:35 Clear 20 -6.6 17 -8.6 86 86 Calm 30.61 1037 10 16.0934 0 0
8:55 pm 20:55 Clear 19 -7.5 14 -9.8 84 84 N 3 6 30.62 1037 10 16.0934 0 0
9:15 pm 21:15 Clear 19 -7.3 15 -9.2 86 86 Calm 30.61 1036 10 16.0934 0 0
9:35 pm 21:35 Clear 18 -7.8 15 -9.7 86 86 Calm 30.6 1036 10 16.0934 0 0
9:55 pm 21:55 Clear 18 -8 15 -9.6 88 88 Calm 30.59 1036 10 16.0934 0 0
10:15 pm 22:15 Clear 17 -8.6 14 -10 90 90 Calm 30.59 1036 10 16.0934 0 0
10:35 pm 22:35 Clear 17 -8.5 14 -9.8 90 90 Calm 30.58 1036 10 16.0934 0 0
10:55 pm 22:55 Clear 16 -8.7 14 -10.1 90 90 Calm 30.57 1035 10 16.0934 0 0
11:15 pm 23:15 Clear 15 -9.2 13 -10.5 90 90 Calm 30.56 1035 10 16.0934 0 0
11:35 pm 23:35 Clear 15 -9.5 13 -10.8 90 90 Calm 30.56 1035 10 16.0934 0 0
11:55 pm 23:55 Clear 14 -9.9 12 -11.1 91 91 Calm 30.56 1035 10 16.0934 0 0

Powered by AerisWeather